Location: Newark
(22.3060°N, 114.2134°E)
Time: 02:48:05
(UTC+00:00)

Explorer 11/Cluster Stage 4 - Pass Details

Date: 05 August 2021
Orbit: 467 x 1256 km, 28.8° (Epoch: 27 September)

Event Time Altitude Azimuth Distance (km) Brightness Sun altitude
Rises 04:06:26 0° 289° (WNW) 4,170 10.2 82.4°
Reaches altitude 10° 04:09:21 10° 290° (WNW) 3,224 9.8 82.9°
Maximum altitude 04:17:40 83° 18° (NNE) 1,233 9.9 84.0°
Drops below altitude 10° 04:25:21 10° 107° (ESE) 2,991 9.7 84.5°
Sets 04:27:58 0° 108° (ESE) 3,856 10.2 84.6°
